Location: El Frío
(10.0713°N, 67.9111°W)
Time: 18:50:25
(UTC+00:00)

YAOGAN 1 - Pass Details

Date: 11 December 2025
Orbit: 605 x 607 km, 97.8° (Epoch: 20 January)

Event Time Altitude Azimuth Distance (km) Brightness Sun altitude
Rises 23:09:49 0° 162° (SSE) 2,854 6.0 -14.1°
Reaches altitude 10° 23:12:01 10° 158° (SSE) 1,951 5.1 -14.6°
Maximum altitude 23:16:12 62° 78° (ENE) 685 2.4 -15.6°
Drops below altitude 10° 23:20:23 10° 358° (N) 1,950 4.9 -16.5°
Sets 23:22:34 0° 354° (N) 2,853 5.8 -17.0°
